Weather History for Hayward, WI

Change the Weather History Date:

Monday, February 24, 2014

  Actual Average Record
Temperature  
Mean Temperature 6 °F -  
Max Temperature 14 °F 42 °F 48 °F (1998)
Min Temperature -2 °F 25 °F -16 °F (2003)
Degree Days  
Heating Degree Days 59    
Moisture  
Dew Point -4 °F    
Average Humidity 65    
Maximum Humidity 79    
Minimum Humidity 49    
Precipitation  
Precipitation 0.00 in - - ()
Sea Level Pressure  
Sea Level Pressure 30.25 in    
Wind  
Wind Speed 5 mph (West)    
Max Wind Speed 9 mph    
Max Gust Speed 16 mph    
Visibility 10 miles    
Events      
Averages and records for this station are not official NWS values.
T = Trace of Precipitation, MM = Missing Value Source: NWS Daily Summary

Daily Weather History Graph

Daily Weather History Graph

Search for Another Location

Airport:

Trip Planner

Search our weather history database for the weather conditions in past years. The results will help you decide how hot, cold, wet, or windy it might be!

Date:

Astronomy

Feb. 24, 2014 Rise Set
Actual Time 6:53 AM CST 5:45 PM CST
Civil Twilight 6:23 AM CST 6:15 PM CST
Nautical Twilight 5:48 AM CST 6:50 PM CST
Astronomical Twilight 5:14 AM CST 7:24 PM CST
Moon 3:02 AM CST (2/24) 12:36 PM CST (2/24)
Length of Visible Light 11h 52m
Length of Day
10h 51m
Waning Crescent, 28% of the Moon is Illuminated
Feb 24
Waning Crescent
Mar 1
New
Mar 8
First Quarter
Mar 16
Full
Mar 23
Last Quarter

Hourly Weather History & Observations

Time (CST) Temp. Windchill Dew Point Humidity Pressure Visibility Wind Dir Wind Speed Gust Speed Precip Events Conditions
12:53 AM 5.0 °F -4.1 °F -2.9 °F 70% 30.20 in 10.0 mi Variable 4.6 mph - N/A   Mostly Cloudy
1:53 AM 3.9 °F -6.9 °F -2.9 °F 73% 30.21 in 10.0 mi West 5.8 mph - N/A   Mostly Cloudy
2:02 AM 3.9 °F -3.4 °F -2.9 °F 73% 30.12 in 10.0 mi Variable 3.5 mph - N/A   Scattered Clouds
2:53 AM 1.9 °F -7.6 °F -4.0 °F 76% 30.21 in 10.0 mi Variable 4.6 mph - N/A   Clear
3:53 AM -0.0 °F -7.9 °F -5.1 °F 79% 30.22 in 10.0 mi Variable 3.5 mph - N/A   Clear
4:53 AM -0.0 °F -9.9 °F -6.0 °F 76% 30.23 in 10.0 mi West 4.6 mph - N/A   Clear
5:53 AM -2.0 °F -10.1 °F -7.1 °F 79% 30.24 in 10.0 mi Variable 3.5 mph - N/A   Clear
6:53 AM -2.9 °F -13.3 °F -8.0 °F 79% 30.25 in 10.0 mi Variable 4.6 mph - N/A   Clear
7:53 AM -2.0 °F -10.1 °F -8.0 °F 76% 30.27 in 10.0 mi Variable 3.5 mph - N/A   Clear
8:53 AM 1.0 °F -10.3 °F -7.1 °F 69% 30.27 in 10.0 mi Variable 5.8 mph - N/A   Partly Cloudy
9:53 AM 3.0 °F -10.5 °F -7.1 °F 63% 30.29 in 10.0 mi WNW 8.1 mph - N/A   Clear
10:53 AM 5.0 °F -8.1 °F -6.0 °F 61% 30.29 in 10.0 mi WNW 8.1 mph 16.1 mph N/A   Clear
11:53 AM 8.1 °F -4.3 °F -5.1 °F 55% 30.29 in 10.0 mi West 8.1 mph - N/A   Clear
12:53 PM 10.0 °F -0.9 °F -4.0 °F 53% 30.27 in 10.0 mi WNW 6.9 mph - N/A   Clear
1:53 PM 12.9 °F 5.2 °F -2.9 °F 49% 30.26 in 10.0 mi Variable 4.6 mph - N/A   Clear
2:53 PM 14.0 °F 3.9 °F -2.0 °F 49% 30.27 in 10.0 mi West 6.9 mph - N/A   Clear
3:53 PM 14.0 °F 2.0 °F -2.0 °F 49% 30.27 in 10.0 mi West 9.2 mph - N/A   Clear
4:53 PM 12.0 °F 5.9 °F -2.0 °F 53% 30.26 in 10.0 mi Variable 3.5 mph - N/A   Clear
5:53 PM 10.0 °F 3.6 °F -2.0 °F 58% 30.27 in 10.0 mi Variable 3.5 mph - N/A   Clear
6:53 PM 7.0 °F - -2.0 °F 67% 30.28 in 10.0 mi Calm Calm - N/A   Mostly Cloudy
7:53 PM 8.1 °F - -2.0 °F 64% 30.29 in 10.0 mi Calm Calm - N/A   Overcast
8:53 PM 8.1 °F 1.4 °F -2.9 °F 61% 30.28 in 10.0 mi WSW 3.5 mph - N/A   Overcast
9:53 PM 7.0 °F -1.7 °F -2.9 °F 64% 30.28 in 10.0 mi WSW 4.6 mph - N/A   Overcast
10:53 PM 6.1 °F -0.9 °F -4.0 °F 63% 30.27 in 10.0 mi West 3.5 mph - N/A   Overcast
11:53 PM 6.1 °F -0.9 °F -5.1 °F 60% 30.27 in 10.0 mi Variable 3.5 mph - N/A   Overcast